Location: Banff
(51.1670°N, 115.5670°W)
Time: 04:48:30
(UTC-07:00)

Daily predictions for brighter satellites

Satellite Brightness Start Highest point End
(mag) Time Altitude Azimuth Time Altitude Azimuth Time Altitude Azimuth
CENTAUR R/B 4.2 03:56:21 30° NE 03:56:21 30° NE 03:59:50 10° NE
Cosmos 2369 Rocket 4.3 04:13:48 21° ESE 04:13:48 21° ESE 04:15:43 10° ESE
ATLAS 3B R/B 4.2 04:19:20 27° NNE 04:19:20 27° NNE 04:23:45 10° NE
ADEOS II 4.3 04:25:01 10° NNE 04:26:31 19° NE 04:26:31 19° NE
Cosmos 1943 Rocket 3.6 04:37:39 33° ENE 04:37:39 33° ENE 04:41:48 10° ESE
CZ-4C R/B 3.9 04:50:00 29° N 04:50:00 29° N 04:55:57 10° ENE
Cosmos 2184 Rocket 4.5 04:52:20 55° NE 04:52:20 55° NE 04:57:27 10° NNE
Cosmos 2333 Rocket 4.3 04:59:02 16° N 04:59:02 16° N 05:00:19 10° NNE
COSMO-SKYMED 1 4.3 05:02:56 10° SE 05:05:46 31° ESE 05:05:46 31° ESE
SL-16 R/B 3.7 05:11:04 27° NNE 05:11:04 27° NNE 05:13:39 10° NNE
Lacrosse 5 2.7 05:10:49 48° ESE 05:10:49 48° ESE 05:15:01 10° ENE
Cosmos 44 4.4 05:19:33 35° SSE 05:21:01 44° ESE 05:25:52 10° NE
Lacrosse 5 rocket 3.1 05:25:39 29° NE 05:25:39 29° NE 05:28:23 10° ENE
Cosmos 1610 Rocket 4.5 05:18:36 10° S 05:24:49 80° E 05:31:10 10° NNE
Cosmos 2263 4.2 05:28:13 70° S 05:28:13 70° S 05:33:11 10° SSE
Cosmos 1420 Rocket 4.2 05:28:58 62° NNE 05:29:30 67° ENE 05:34:41 10° SE
Cosmos 2237 Rocket 4.0 05:37:01 17° N 05:37:01 17° N 05:38:59 10° NNE
Meteor 1-19 Rocket 4.1 05:42:53 69° WNW 05:43:12 71° W 05:48:55 10° S
CENTAUR R/B 3.1 05:43:33 42° NW 05:44:00 42° NNW 05:51:01 10° NE
Meteor 2-13 Rocket 4.4 05:40:42 10° S 05:46:52 83° E 05:53:02 10° NNE
ATLAS 5 CENTAUR R/B 3.5 05:48:23 25° N 05:50:03 29° NNE 05:55:16 10° ENE
Nadezhda 3 Rocket 3.9 05:49:03 26° NNW 05:52:50 67° W 05:59:08 10° S
Cosmos 2369 Rocket 2.9 05:55:40 36° SW 05:55:40 36° SW 05:59:40 10° S
SKYMED 2 3.6 05:50:33 10° SSE 05:54:22 67° SSW 05:54:22 67° SSW
Lacrosse 4 Rocket 1.4 05:56:01 71° SSE 05:56:01 71° SSE 05:59:40 10° SSE
Cosmos 1025 Rocket 3.1 05:57:49 64° SSW 05:57:49 64° SSW 06:01:34 10° S
DMSP B5D1-3 4.4 05:52:48 10° SSE 05:57:58 90° SE 06:00:47 28° NNW
Cosmos 2219 Rocket 4.2 06:04:33 14° NNW 06:04:33 14° NNW 06:06:33 10° N
Meteor 2-4 Rocket 3.6 06:02:21 37° NNW 06:04:30 65° W 06:10:07 10° S
Meteor 1-11 Rocket 3.6 05:58:46 10° SSW 06:04:33 76° WNW 06:10:14 10° N
Meteor 1-23 Rocket 4.0 06:01:39 27° NNW 06:04:45 74° W 06:10:17 10° S
Cosmos 1603 3.8 06:06:16 48° WNW 06:06:36 48° NW 06:12:05 10° NNE
ADEOS II 3.3 06:04:54 10° N 06:07:28 25° NNW 06:07:28 25° NNW
ATLAS 3B R/B 3.7 06:06:36 22° NNW 06:10:20 37° NNE 06:16:33 10° E
Cosmos 962 Rocket 4.4 06:04:31 10° S 06:10:46 84° WNW 06:17:07 10° N
Abrixas rocket 3.0 06:11:18 47° SSE 06:11:18 47° SSE 06:14:29 10° E
Cosmos 1867 4.5 06:09:54 25° NNW 06:12:43 43° NE 06:17:55 10° ESE
Cosmos 1727 Rocket 4.4 06:07:57 10° N 06:14:05 61° ENE 06:20:14 10° SSE
Meteor 1-5 Rocket 4.3 06:12:41 10° S 06:17:58 73° E 06:23:17 10° NNE
SL-24 DEB 4.2 06:14:55 10° S 06:19:43 78° W 06:24:32 10° N
Cosmos 1943 Rocket 2.3 06:19:13 40° WNW 06:20:45 51° WSW 06:26:03 10° S
Cosmos 1452 Rocket 4.3 06:21:45 32° WSW 06:21:45 32° WSW 06:25:49 10° SSW
Cosmos 44 Rocket 3.5 06:20:09 43° W 06:21:25 53° NW 06:26:23 10° NE
Cosmos 1110 Rocket 4.4 06:17:45 17° NNW 06:21:47 61° ENE 06:26:56 10° SE
Cosmos 1943 3.1 06:21:04 13° SW 06:26:10 66° WNW 06:31:50 10° NNE
Meteor 2-8 Rocket 4.4 06:21:23 10° NNW 06:27:32 71° W 06:33:39 10° S
USA 129 4.3 06:26:47 10° SSE 06:27:29 18° SSE 06:27:29 18° SSE
Helios 1B rocket 3.4 06:25:33 10° SE 06:29:32 47° ENE 06:33:33 10° N
Cosmos 2341 Rocket 3.9 06:26:15 10° SSW 06:32:26 61° WNW 06:38:38 10° N
Cosmos 1544 Rocket 3.6 06:30:34 10° S 06:34:56 83° E 06:39:24 10° NNE
IDEFIX/ARIANE 42P 4.2 06:30:12 10° NNE 06:35:01 37° E 06:39:49 10° SSE
Cosmos 1656 Rocket 3.6 06:33:07 21° NNW 06:36:58 77° WSW 06:42:39 10° SSE
CZ-4C R/B 3.4 06:35:12 19° NW 06:40:00 49° NNE 06:47:15 10° ESE
Cosmos 2333 Rocket 4.1 06:41:03 12° NNW 06:41:34 12° NNW 06:43:50 10° N
SL-24 R/B 4.3 06:37:06 10° NNE 06:42:33 80° WNW 06:47:09 10° SSW
Cosmos 1461 4.1 06:39:00 10° SSW 06:43:04 44° ESE 06:47:01 10° NE
COSMO-SKYMED 1 3.5 06:39:25 10° SSW 06:42:59 28° W 06:42:59 28° W
Cosmos 1536 3.4 06:44:07 33° WNW 06:44:07 33° WNW 06:47:41 10° N
Okean 2 3.9 06:43:45 31° NW 06:44:59 39° W 06:48:51 10° SSW
CZ-2C R/B 3.7 06:40:41 10° NNE 06:45:40 46° E 06:50:30 10° S
Cosmos 1339 Rocket 4.5 06:42:39 10° N 06:48:53 88° W 06:55:11 10° S
NOAA 6 4.4 06:44:43 10° N 06:49:31 41° WNW 06:54:17 10° SW
SOZ 3.8 06:50:50 62° SSW 06:51:01 70° SSE 06:53:09 10° ENE
Cosmos 1500 4.0 06:47:51 10° S 06:51:31 52° E 06:55:13 10° NNE
Lacrosse 5 2.0 06:50:03 24° W 06:53:04 58° NNW 06:58:07 10° ENE
Cosmos 2154 Rocket 4.5 06:47:53 10° SW 06:53:32 36° WNW 06:59:13 10° N
SL-16 R/B 3.7 06:52:57 16° NW 06:53:36 17° NNW 06:57:12 10° N
Cosmos 1302 Rocket 4.5 06:49:44 10° NNW 06:54:59 61° ENE 07:00:13 10° SE
CZ-4 R/B 1.8 06:51:38 10° NNE 06:55:35 64° ESE 06:59:26 10° S
Cosmos 1892 Rocket 4.2 06:53:34 20° NW 06:56:04 36° W 07:00:10 10° SSW
Cosmos 2084 3.0 06:53:15 10° SW 06:57:06 85° NW 07:00:55 10° NE
Cosmos 1340 3.6 06:57:02 26° W 06:57:13 26° W 07:00:24 10° SSW
USA 229 DEB 3.7 06:50:34 10° SW 06:57:30 82° NW 07:04:33 10° NE
USA 229 3.7 06:50:41 10° SW 06:57:36 82° NW 07:04:40 10° NE
Cosmos 2360 Rocket 4.5 06:57:12 10° N 06:57:51 10° N 06:58:31 10° NNE
Meteor 1-28 Rocket 4.1 06:55:15 10° SSW 06:58:36 29° W 06:59:44 25° WNW
Cosmos 2278 4.5 06:53:50 10° NNW 06:59:21 49° NE 07:04:49 10° SE
Cosmos 2322 Rocket 4.4 06:57:27 10° N 07:00:24 14° NNE 07:03:19 10° NE
Cosmos 1980 Rocket 4.1 06:56:15 10° NNW 07:00:30 21° NE 07:04:43 10° E
SMAP 3.8 06:56:56 10° NNE 07:01:33 57° E 07:06:08 10° S
Cosmos 44 3.7 06:58:04 14° WSW 07:02:19 45° NW 07:07:11 10° NE
Lacrosse 5 rocket 1.6 07:01:22 22° NW 07:04:04 66° NNE 07:08:33 10° ESE
Cosmos 1626 Rocket 3.5 07:02:09 10° NNW 07:06:35 70° W 07:10:56 10° S
Cosmos 405 Rocket 2.7 07:04:13 10° N 07:08:03 79° ENE 07:11:47 10° SSE
Cosmos 1066 Rocket 4.1 07:05:11 10° NNW 07:10:36 77° W 07:16:06 10° S
Cosmos 1269 Rocket 4.1 07:05:39 10° SW 07:10:52 58° WNW 07:16:09 10° NNE
NOSS 3-1 (A) 4.5 07:06:27 10° SSW 07:12:10 50° ESE 07:18:35 10° NE
CSL-04 Rocket 3.7 07:06:56 10° N 07:12:24 58° WNW 07:17:46 10° SW
Meteor 1-12 Rocket 4.2 07:07:05 10° SSW 07:12:44 85° W 07:18:29 10° NNE
SL-8 Rocket 4.2 07:10:20 10° SSW 07:16:21 48° WNW 07:22:21 10° N
USA 215 3.5 07:10:20 10° ENE 07:16:53 74° SSE 07:23:25 10° SW
IRS-1A Rocket 4.3 07:12:53 10° NNE 07:18:36 74° WNW 07:24:24 10° SSW
Ariane Rocket 3.4 07:14:12 10° N 07:18:55 41° WNW 07:23:38 10° SW
Cosmos 2237 Rocket 4.2 07:19:59 10° NNW 07:20:58 10° N 07:21:57 10° N
AQUARIUS 4.2 07:17:15 10° NNE 07:21:48 88° ESE 07:26:18 10° SSW
SJ-12 3.9 07:18:20 10° N 07:22:31 76° WNW 07:26:40 10° SSW
CSL-04 Debris 4.3 07:18:03 10° N 07:23:24 55° WNW 07:28:44 10° SW
Cosmos 1455 Rocket 3.4 07:19:36 10° SW 07:23:44 42° WNW 07:27:55 10° N
Cosmos 1331 Rocket 4.2 07:18:56 10° NNW 07:23:57 53° WSW 07:28:57 10° S
Cosmos 2251 Rocket 3.9 07:22:17 10° SSW 07:27:38 72° ESE 07:33:02 10° NNE
Meteor 1-29 3.2 07:27:00 10° S 07:30:16 48° W 07:33:36 10° NNW
Cosmos 2366 rocket 4.2 07:24:32 10° SSW 07:30:41 51° WNW 07:36:54 10° N
Cosmos 1048 Rocket 4.3 07:25:50 10° SW 07:30:48 45° WNW 07:35:50 10° NNE
Cosmos 1975 3.1 07:28:02 10° SSW 07:32:00 47° WNW 07:36:00 10° N
Cosmos 1697 Rocket 3.7 07:26:42 10° NNW 07:32:04 41° NE 07:37:25 10° ESE
SL-16 R/B 4.2 07:28:25 10° NNW 07:32:13 18° NNE 07:36:00 10° ENE
Lacrosse 4 Rocket 3.4 07:32:24 11° W 07:33:34 12° WSW 07:35:02 10° SW
CORIOLIS 4.2 07:28:21 10° NNE 07:33:44 86° ESE 07:39:06 10° SSW
ATLAS 5 CENTAUR R/B 2.6 07:29:57 10° NW 07:35:43 68° NE 07:42:00 10° SE
CENTAUR R/B 3.8 07:30:44 11° WNW 07:36:32 32° N 07:43:21 10° ENE
Cosmos 1656 4.3 07:31:12 10° NNW 07:36:46 55° NE 07:42:21 10° SE
Cosmos 2123 Rocket 4.4 07:31:26 10° N 07:37:41 69° ENE 07:43:52 10° SSE
COSMOS 2455 4.1 07:34:20 10° NNW 07:39:46 33° NE 07:45:11 10° E
SPOT 3 Rocket 3.5 07:36:50 10° NNE 07:41:59 75° WNW 07:47:07 10° SSW
Cosmos 2218 Rocket 4.5 07:37:44 10° SW 07:43:39 39° WNW 07:49:35 10° N
Cosmos 1441 Rocket 3.3 07:43:06 10° NNW 07:47:06 86° E 07:51:00 10° SSE
Abrixas rocket 3.0 07:44:40 10° W 07:47:56 48° S 07:51:11 10° ESE
SL-27 R/B 2.9 07:46:13 10° SW 07:49:38 40° WNW 07:53:08 10° N
COSMOS 2406 3.2 07:46:09 10° SW 07:51:46 63° NW 07:57:27 10° NNE
YAOGAN 1 2.7 07:49:28 10° N 07:53:42 50° WNW 07:57:53 10° SW
Cosmos 2369 3.7 07:50:34 10° NNW 07:56:15 79° WSW 08:01:53 10° SSE
Cosmos 1867 4.0 07:51:10 10° NW 07:56:27 49° WSW 08:01:39 10° SSE
MOS 1 4.3 07:51:26 10° N 07:57:01 62° WNW 08:02:34 10° SSW
USA 238 DEB 4.1 07:53:00 10° NW 08:00:02 64° NE 08:07:03 10° ESE
USA 238 4.1 07:53:06 10° NW 08:00:08 64° NE 08:07:09 10° ESE
Cosmos 1607 4.4 07:54:20 10° NW 08:00:30 59° NE 08:06:42 10° ESE
ATLAS 3B R/B 2.8 07:54:53 10° NW 08:01:57 86° NE 08:08:35 10° SE
